CCA770 KLAX-ZSPD

Flight info

Callsign CCA770
Flight time N/A
Altitude 28000
Route LADYJ4 CSTRO DCT JAGWA DCT SAC DCT FOT DCT BOXER DCT FULMR DCT 46N130W/N0495F300 52N140W 56N150W DCT PDN G469 SPY/N0488F320 DCT 57N180E DCT NATES/N0493F330 R220 NOGAL/N0494F340 R220 NODAN R217 GTC Y142 SAMON Y14 BESMU/N0491F360 Y14 DGC Y28 ISAKY Y592 ONIKU A593 LAMEN/K0941F280 A593 AKARA/K0935S0840 A593 PUD
Aircraft B77W/H-SDE1E2E3FGHIJ2J3J4J5M1RWXY/LB1D1

Departure

Time 2026-05-01 12:31
Airport Los Angeles International Airport (KLAX)

Arrival

Time N/A
Airport Shanghai Pudong International Airport (ZSPD)
Time Latitude Longitude Altitude Speed Heading
2026-05-01 11:58 33.94262 -118.41107 97 ft 0 kts 83°
2026-05-01 12:20 33.94261 -118.41118 97 ft 4 kts 83°
2026-05-01 12:20 33.94258 -118.41151 96 ft 4 kts 83°
2026-05-01 12:20 33.94256 -118.41175 97 ft 3 kts 84°
2026-05-01 12:21 33.94257 -118.41204 95 ft 4 kts 122°
2026-05-01 12:21 33.94276 -118.41222 95 ft 4 kts 170°
2026-05-01 12:21 33.94301 -118.41226 97 ft 4 kts 173°
2026-05-01 12:21 33.94316 -118.41228 97 ft 0 kts 173°
2026-05-01 12:23 33.94294 -118.41225 99 ft 10 kts 173°
2026-05-01 12:24 33.94225 -118.41214 98 ft 10 kts 172°
2026-05-01 12:24 33.94155 -118.41203 98 ft 10 kts 173°
2026-05-01 12:24 33.94085 -118.41193 99 ft 10 kts 173°
2026-05-01 12:24 33.94016 -118.41183 98 ft 10 kts 173°
2026-05-01 12:25 33.93926 -118.41169 97 ft 15 kts 173°
2026-05-01 12:25 33.93769 -118.41057 98 ft 15 kts 85°
2026-05-01 12:25 33.93785 -118.40906 100 ft 23 kts 82°
2026-05-01 12:26 33.93805 -118.40714 100 ft 23 kts 83°
2026-05-01 12:26 33.93846 -118.40323 100 ft 23 kts 83°
2026-05-01 12:26 33.93866 -118.40127 103 ft 23 kts 83°
2026-05-01 12:27 33.93886 -118.39933 101 ft 23 kts 83°
2026-05-01 12:27 33.93924 -118.39552 100 ft 23 kts 83°
2026-05-01 12:28 33.93965 -118.39159 101 ft 23 kts 83°
2026-05-01 12:28 33.93985 -118.38964 100 ft 23 kts 83°
2026-05-01 12:28 33.94024 -118.38574 101 ft 23 kts 82°
2026-05-01 12:29 33.94044 -118.38382 100 ft 23 kts 83°
2026-05-01 12:29 33.94064 -118.38187 99 ft 23 kts 83°
2026-05-01 12:29 33.94007 -118.38014 99 ft 13 kts 207°
2026-05-01 12:30 33.93949 -118.38363 103 ft 57 kts 263°
2026-05-01 12:30 33.93864 -118.39189 101 ft 141 kts 263°
2026-05-01 12:30 33.93710 -118.40671 123 ft 199 kts 262°
2026-05-01 12:31 33.93538 -118.42271 410 ft 192 kts 262°
2026-05-01 12:31 33.93365 -118.43883 562 ft 195 kts 263°
2026-05-01 12:31 33.93191 -118.45552 882 ft 209 kts 263°
2026-05-01 12:31 33.93036 -118.47399 1611 ft 233 kts 264°
2026-05-01 12:32 33.92876 -118.49382 2138 ft 241 kts 264°
2026-05-01 12:32 33.92555 -118.53403 3052 ft 248 kts 265°
2026-05-01 12:32 33.92382 -118.55512 3391 ft 260 kts 265°
2026-05-01 12:33 33.92200 -118.57723 3870 ft 269 kts 265°
2026-05-01 12:33 33.92021 -118.59975 4502 ft 271 kts 269°
2026-05-01 12:33 33.92317 -118.62199 4967 ft 273 kts 299°
2026-05-01 12:33 33.93531 -118.63926 5581 ft 273 kts 325°
2026-05-01 12:34 33.95181 -118.65089 6089 ft 278 kts 331°
2026-05-01 12:34 33.96905 -118.66208 6649 ft 283 kts 330°
2026-05-01 12:34 33.98646 -118.67311 7295 ft 282 kts 337°
2026-05-01 12:34 34.00585 -118.67740 7666 ft 289 kts
2026-05-01 12:35 34.02596 -118.67530 8042 ft 292 kts
2026-05-01 12:35 34.04613 -118.67381 7993 ft 294 kts
2026-05-01 12:35 34.06647 -118.67255 7999 ft 292 kts
2026-05-01 12:35 34.08635 -118.67440 8049 ft 283 kts 340°
2026-05-01 12:36 34.10504 -118.68234 8485 ft 289 kts 340°
2026-05-01 12:36 34.12432 -118.69044 8976 ft 296 kts 340°
2026-05-01 12:36 34.14401 -118.69856 9517 ft 301 kts 341°
2026-05-01 12:36 34.16394 -118.70673 10121 ft 303 kts 341°
2026-05-01 12:37 34.18425 -118.71501 10472 ft 316 kts 341°
2026-05-01 12:37 34.20577 -118.72378 10620 ft 336 kts 341°
2026-05-01 12:37 34.22858 -118.73305 10780 ft 355 kts 341°
2026-05-01 12:37 34.25255 -118.74279 11079 ft 370 kts 341°
2026-05-01 12:38 34.27712 -118.75277 11659 ft 375 kts 341°
2026-05-01 12:38 34.30195 -118.76286 12383 ft 376 kts 341°
2026-05-01 12:38 34.32645 -118.77281 13177 ft 375 kts 341°
2026-05-01 12:38 34.35119 -118.78286 13958 ft 375 kts 341°
2026-05-01 12:39 34.37601 -118.79296 14578 ft 378 kts 341°
2026-05-01 12:39 34.40110 -118.80317 15153 ft 382 kts 341°
2026-05-01 12:39 34.42642 -118.81348 15758 ft 385 kts 341°
2026-05-01 12:39 34.45197 -118.82388 16350 ft 388 kts 341°
2026-05-01 12:40 34.47764 -118.83436 16978 ft 390 kts 341°
2026-05-01 12:40 34.50348 -118.84492 17541 ft 394 kts 341°
2026-05-01 12:40 34.52958 -118.85556 18097 ft 397 kts 340°
2026-05-01 12:40 34.55547 -118.86613 18606 ft 400 kts 340°
2026-05-01 12:41 34.58196 -118.87693 19128 ft 401 kts 340°
2026-05-01 12:41 34.60850 -118.88771 19667 ft 403 kts 340°
2026-05-01 12:41 34.63512 -118.89865 20157 ft 406 kts 340°
2026-05-01 12:41 34.66200 -118.90972 20611 ft 410 kts 340°
2026-05-01 12:42 34.68910 -118.92085 21090 ft 413 kts 340°
2026-05-01 12:42 34.71644 -118.93206 21556 ft 416 kts 340°
2026-05-01 12:42 34.74390 -118.94331 22029 ft 419 kts 339°
2026-05-01 12:42 34.77163 -118.95470 22494 ft 422 kts 339°
2026-05-01 12:43 34.79012 -118.96231 22732 ft 425 kts 339°
2026-05-01 12:43 34.81827 -118.97390 23174 ft 428 kts 339°
2026-05-01 12:43 34.84663 -118.98555 23602 ft 431 kts 339°
2026-05-01 12:43 34.88438 -119.00107 24178 ft 432 kts 339°
2026-05-01 12:44 34.90365 -119.00901 24487 ft 433 kts 339°
2026-05-01 12:44 34.93223 -119.02079 24914 ft 434 kts 339°
2026-05-01 12:44 34.98940 -119.04440 25669 ft 438 kts 338°
2026-05-01 12:45 35.04729 -119.06834 26457 ft 440 kts 338°
2026-05-01 12:45 35.07641 -119.08039 26825 ft 442 kts 338°
2026-05-01 12:45 35.10559 -119.09247 27183 ft 444 kts 338°
2026-05-01 12:46 35.13487 -119.10461 27506 ft 446 kts 338°
2026-05-01 12:46 35.16431 -119.11682 27857 ft 447 kts 338°
2026-05-01 12:46 35.19376 -119.12905 28228 ft 448 kts 338°
2026-05-01 12:46 35.22331 -119.14132 28564 ft 449 kts 338°
2026-05-01 12:47 35.25298 -119.15366 28864 ft 450 kts 338°
2026-05-01 12:47 35.28270 -119.16603 29144 ft 452 kts 338°
2026-05-01 12:47 35.31256 -119.17847 29409 ft 454 kts 338°
2026-05-01 12:47 35.34248 -119.19094 29663 ft 455 kts 337°
2026-05-01 12:48 35.37254 -119.20347 29879 ft 457 kts 337°
2026-05-01 12:48 35.40276 -119.21610 29926 ft 460 kts 337°
2026-05-01 12:48 35.46153 -119.24482 29960 ft 453 kts 330°
2026-05-01 12:49 35.51572 -119.28369 29983 ft 452 kts 326°
2026-05-01 12:49 35.57000 -119.32352 30006 ft 455 kts 326°
2026-05-01 12:50 35.62447 -119.36323 29988 ft 455 kts 326°
2026-05-01 12:50 35.67900 -119.40295 29990 ft 454 kts 326°
2026-05-01 12:51 35.73338 -119.44263 29983 ft 453 kts 326°
2026-05-01 12:52 35.81406 -119.50164 29983 ft 451 kts 326°
2026-05-01 12:52 35.89483 -119.56089 29955 ft 450 kts 326°
2026-05-01 12:53 35.97565 -119.62030 29970 ft 451 kts 326°
2026-05-01 12:54 36.02959 -119.66004 29977 ft 452 kts 326°
2026-05-01 12:54 36.11029 -119.71960 29981 ft 452 kts 326°
2026-05-01 12:55 36.19139 -119.77960 29984 ft 453 kts 326°
2026-05-01 12:56 36.24548 -119.81971 29976 ft 453 kts 326°
2026-05-01 12:56 36.29956 -119.85986 29982 ft 453 kts 326°
2026-05-01 12:57 36.35333 -119.89986 29970 ft 453 kts 326°
2026-05-01 12:57 36.43446 -119.96033 29973 ft 454 kts 326°
2026-05-01 12:58 36.48858 -120.00075 29989 ft 454 kts 326°
2026-05-01 12:59 36.56976 -120.06151 29978 ft 454 kts 326°
2026-05-01 12:59 36.65094 -120.12242 29966 ft 454 kts 326°
2026-05-01 13:00 36.73176 -120.18321 29984 ft 454 kts 326°
2026-05-01 13:01 36.81296 -120.24444 29983 ft 455 kts 326°
2026-05-01 13:02 36.89433 -120.30595 29990 ft 456 kts 326°
2026-05-01 13:07 37.46286 -120.74505 31549 ft 458 kts 324°
2026-05-01 13:07 37.48959 -120.76679 31672 ft 457 kts 324°
2026-05-01 13:07 37.51638 -120.78854 31803 ft 457 kts 324°
2026-05-01 13:08 37.54308 -120.81021 31918 ft 457 kts 324°
2026-05-01 13:08 37.56981 -120.83191 32044 ft 456 kts 324°
2026-05-01 13:08 37.59647 -120.85356 32167 ft 456 kts 324°
2026-05-01 13:08 37.62312 -120.87521 32291 ft 455 kts 324°
2026-05-01 13:09 37.64941 -120.89660 32415 ft 455 kts 324°
2026-05-01 13:09 37.67602 -120.91827 32560 ft 454 kts 324°
2026-05-01 13:09 37.70251 -120.93986 32688 ft 453 kts 324°
2026-05-01 13:09 37.72902 -120.96149 32798 ft 453 kts 324°
2026-05-01 13:10 37.75548 -120.98308 32921 ft 452 kts 324°
2026-05-01 13:10 37.78191 -121.00468 33043 ft 452 kts 324°
2026-05-01 13:10 37.80824 -121.02622 33170 ft 451 kts 324°
2026-05-01 13:10 37.83461 -121.04781 33304 ft 450 kts 324°
2026-05-01 13:11 37.86086 -121.06932 33446 ft 449 kts 324°
2026-05-01 13:11 37.88708 -121.09082 33571 ft 449 kts 324°
2026-05-01 13:11 37.91325 -121.11229 33703 ft 448 kts 324°
2026-05-01 13:11 37.93935 -121.13374 33829 ft 447 kts 324°
2026-05-01 13:12 37.96545 -121.15519 33906 ft 447 kts 324°
2026-05-01 13:12 38.01767 -121.19819 33986 ft 449 kts 324°
2026-05-01 13:13 38.06993 -121.24130 33968 ft 452 kts 324°
2026-05-01 13:13 38.12285 -121.28502 33970 ft 454 kts 323°
2026-05-01 13:14 38.17597 -121.32897 33992 ft 457 kts 324°
2026-05-01 13:14 38.22933 -121.37321 33977 ft 459 kts 323°
2026-05-01 13:15 38.28289 -121.41769 33977 ft 460 kts 323°
2026-05-01 13:15 38.33647 -121.46227 33979 ft 460 kts 323°
2026-05-01 13:16 38.39007 -121.50694 33982 ft 460 kts 323°
2026-05-01 13:16 38.44312 -121.55226 33979 ft 458 kts 320°
2026-05-01 13:17 38.53735 -121.65934 33976 ft 455 kts 315°
2026-05-01 13:18 38.60765 -121.74097 33983 ft 454 kts 315°
2026-05-01 13:18 38.65449 -121.79530 33988 ft 454 kts 315°
2026-05-01 13:19 38.70130 -121.84966 33965 ft 454 kts 315°
2026-05-01 13:20 38.77159 -121.93150 33964 ft 455 kts 315°
2026-05-01 13:20 38.81827 -121.98600 33970 ft 456 kts 315°
2026-05-01 13:21 38.88868 -122.06837 33972 ft 457 kts 315°
2026-05-01 13:21 38.93562 -122.12341 33982 ft 457 kts 315°
2026-05-01 13:22 38.98256 -122.17856 33979 ft 457 kts 315°
2026-05-01 13:22 39.02955 -122.23388 33979 ft 458 kts 315°
2026-05-01 13:23 39.07652 -122.28927 33983 ft 458 kts 315°
2026-05-01 13:23 39.12330 -122.34455 33972 ft 459 kts 315°
2026-05-01 13:24 39.17037 -122.40026 33967 ft 460 kts 314°
2026-05-01 13:25 39.24109 -122.48417 33962 ft 461 kts 314°
2026-05-01 13:25 39.28824 -122.54026 33974 ft 461 kts 314°
2026-05-01 13:26 39.33537 -122.59644 33967 ft 461 kts 314°
2026-05-01 13:26 39.38255 -122.65277 33969 ft 461 kts 314°
2026-05-01 13:27 39.42972 -122.70916 33969 ft 462 kts 314°
2026-05-01 13:27 39.50026 -122.79379 33991 ft 463 kts 314°
2026-05-01 13:28 39.57107 -122.87890 33988 ft 462 kts 314°
2026-05-01 13:29 39.66515 -122.99251 33998 ft 462 kts 314°
2026-05-01 13:31 39.80647 -123.16387 34006 ft 464 kts 314°
2026-05-01 13:32 39.91649 -123.29800 34031 ft 465 kts 314°
2026-05-01 13:33 40.03478 -123.44291 34036 ft 467 kts 313°
2026-05-01 13:34 40.12943 -123.55938 34044 ft 469 kts 313°
2026-05-01 13:35 40.20075 -123.64744 34049 ft 470 kts 313°
2026-05-01 13:36 40.27209 -123.73580 34064 ft 470 kts 313°
2026-05-01 13:36 40.34293 -123.82381 34087 ft 470 kts 313°
2026-05-01 13:37 40.39044 -123.88299 34097 ft 471 kts 313°
2026-05-01 13:37 40.43800 -123.94236 34079 ft 472 kts 313°
2026-05-01 13:38 40.50936 -124.03166 34113 ft 472 kts 313°
2026-05-01 13:39 40.55694 -124.09135 34096 ft 472 kts 313°
2026-05-01 13:39 40.60411 -124.15067 34099 ft 473 kts 313°
2026-05-01 13:40 40.65169 -124.21059 34100 ft 473 kts 313°
2026-05-01 13:40 40.70299 -124.26567 34101 ft 478 kts 321°
2026-05-01 13:41 40.75797 -124.31530 34109 ft 479 kts 321°
2026-05-01 13:41 40.81304 -124.36523 34107 ft 480 kts 321°
2026-05-01 13:42 40.86797 -124.41555 34116 ft 481 kts 321°
2026-05-01 13:42 40.92287 -124.46614 34114 ft 481 kts 321°
2026-05-01 13:43 40.97782 -124.51693 34115 ft 482 kts 321°
2026-05-01 13:43 41.03276 -124.56778 34131 ft 482 kts 320°
2026-05-01 13:44 41.08753 -124.61857 34125 ft 483 kts 320°
2026-05-01 13:44 41.14266 -124.66980 34119 ft 484 kts 320°
2026-05-01 13:45 41.19782 -124.72115 34123 ft 484 kts 320°
2026-05-01 13:45 41.25292 -124.77256 34123 ft 484 kts 320°
2026-05-01 13:46 41.30799 -124.82406 34123 ft 484 kts 320°
2026-05-01 13:46 41.36278 -124.87539 34127 ft 484 kts 320°
2026-05-01 13:47 41.41785 -124.92711 34128 ft 484 kts 320°
2026-05-01 13:47 41.47293 -124.97894 34133 ft 484 kts 320°
2026-05-01 13:48 41.52801 -125.03087 34142 ft 485 kts 319°
2026-05-01 13:48 41.58307 -125.08291 34125 ft 485 kts 319°
2026-05-01 13:49 41.63816 -125.13508 34151 ft 485 kts 319°
2026-05-01 13:49 41.69279 -125.18692 34125 ft 485 kts 319°
2026-05-01 13:50 41.74781 -125.23925 34132 ft 485 kts 319°
2026-05-01 13:50 41.80275 -125.29162 34150 ft 485 kts 319°
2026-05-01 13:51 41.85781 -125.34421 34147 ft 485 kts 319°
2026-05-01 13:51 41.91280 -125.39686 34141 ft 485 kts 319°
2026-05-01 13:52 41.96746 -125.44928 34159 ft 485 kts 319°
2026-05-01 13:52 42.02242 -125.50212 34154 ft 486 kts 319°
2026-05-01 13:53 42.07744 -125.55514 34150 ft 486 kts 319°
2026-05-01 13:53 42.15991 -125.63480 34149 ft 487 kts 319°
2026-05-01 13:54 42.21499 -125.68816 34159 ft 487 kts 319°
2026-05-01 13:54 42.27003 -125.74160 34178 ft 487 kts 319°
2026-05-01 13:55 42.32514 -125.79522 34164 ft 488 kts 319°
2026-05-01 13:55 42.37985 -125.84856 34159 ft 487 kts 319°
2026-05-01 13:56 42.43487 -125.90233 34184 ft 487 kts 318°
2026-05-01 13:56 42.48973 -125.95607 34159 ft 487 kts 318°
2026-05-01 13:57 42.54456 -126.00989 34170 ft 486 kts 318°
2026-05-01 13:57 42.59921 -126.06366 34184 ft 485 kts 318°
2026-05-01 13:58 42.65386 -126.11756 34164 ft 485 kts 318°
2026-05-01 13:58 42.70809 -126.17121 34174 ft 485 kts 317°
2026-05-01 13:59 42.75874 -126.23068 34182 ft 479 kts 311°
2026-05-01 13:59 42.80747 -126.29268 34183 ft 480 kts 311°
2026-05-01 14:00 42.85644 -126.35469 34179 ft 481 kts 311°
2026-05-01 14:00 42.90558 -126.41660 34193 ft 482 kts 311°
2026-05-01 14:01 42.95486 -126.47873 34189 ft 482 kts 311°
2026-05-01 14:01 43.00410 -126.54095 34185 ft 482 kts 311°
2026-05-01 14:02 43.05332 -126.60333 34202 ft 483 kts 311°
2026-05-01 14:02 43.10216 -126.66535 34176 ft 482 kts 311°
2026-05-01 14:03 43.15242 -126.72632 34190 ft 484 kts 315°
2026-05-01 14:03 43.20552 -126.78342 34211 ft 484 kts 316°
2026-05-01 14:04 43.25884 -126.83988 34195 ft 483 kts 316°
2026-05-01 14:04 43.30285 -126.88707 34188 ft 482 kts 315°
2026-05-01 14:05 43.36411 -126.95350 34223 ft 481 kts 315°
2026-05-01 14:05 43.41663 -127.01079 34203 ft 481 kts 315°
2026-05-01 14:06 43.46917 -127.06820 34202 ft 482 kts 315°
2026-05-01 14:06 43.52166 -127.12567 34223 ft 482 kts 315°
2026-05-01 14:07 43.57389 -127.18297 34195 ft 483 kts 315°
2026-05-01 14:08 43.65289 -127.26987 34205 ft 484 kts 315°
2026-05-01 14:08 43.70560 -127.32804 34216 ft 486 kts 315°
2026-05-01 14:09 43.75857 -127.38661 34214 ft 488 kts 315°
2026-05-01 14:09 43.81166 -127.44545 34210 ft 489 kts 315°
2026-05-01 14:10 43.86445 -127.50410 34218 ft 490 kts 316°
2026-05-01 14:10 43.91772 -127.56341 34202 ft 491 kts 316°
2026-05-01 14:11 43.97100 -127.62289 34224 ft 492 kts 316°
2026-05-01 14:11 44.05125 -127.71276 34217 ft 495 kts 316°
2026-05-01 14:12 44.10488 -127.77297 34218 ft 496 kts 316°
2026-05-01 14:12 44.15858 -127.83341 34217 ft 496 kts 316°
2026-05-01 14:13 44.20322 -127.88378 34216 ft 497 kts 316°
2026-05-01 14:13 44.26605 -127.95482 34223 ft 497 kts 316°
2026-05-01 14:14 44.31982 -128.01579 34224 ft 497 kts 316°
2026-05-01 14:14 44.37319 -128.07644 34225 ft 497 kts 316°
2026-05-01 14:15 44.42686 -128.13759 34227 ft 497 kts 316°
2026-05-01 14:15 44.48037 -128.19870 34227 ft 496 kts 316°
2026-05-01 14:16 44.53387 -128.25997 34217 ft 497 kts 316°
2026-05-01 14:16 44.58734 -128.32135 34229 ft 496 kts 316°
2026-05-01 14:17 44.64043 -128.38243 34232 ft 496 kts 316°
2026-05-01 14:17 44.69386 -128.44406 34219 ft 497 kts 316°
2026-05-01 14:18 44.74723 -128.50577 34232 ft 497 kts 316°
2026-05-01 14:18 44.79161 -128.55720 34232 ft 497 kts 316°
2026-05-01 14:19 44.85395 -128.62963 34230 ft 498 kts 317°
2026-05-01 14:19 44.90734 -128.69182 34242 ft 498 kts 317°
2026-05-01 14:20 44.98749 -128.78548 34260 ft 498 kts 317°
2026-05-01 14:21 45.04095 -128.84813 34231 ft 500 kts 317°
2026-05-01 14:21 45.09417 -128.91070 34245 ft 501 kts 317°
2026-05-01 14:22 45.17468 -129.00561 34252 ft 503 kts 317°
2026-05-01 14:22 45.22848 -129.06923 34241 ft 504 kts 317°
2026-05-01 14:23 45.28233 -129.13307 34242 ft 504 kts 317°
2026-05-01 14:23 45.33615 -129.19703 34256 ft 505 kts 317°
2026-05-01 14:24 45.38964 -129.26079 34237 ft 505 kts 317°
2026-05-01 14:24 45.44346 -129.32508 34241 ft 504 kts 317°
2026-05-01 14:25 45.48840 -129.37890 34258 ft 504 kts 317°
2026-05-01 14:25 45.54171 -129.44289 34244 ft 504 kts 317°
2026-05-01 14:26 45.62215 -129.53978 34234 ft 504 kts 317°
2026-05-01 14:27 45.67571 -129.60449 34243 ft 503 kts 317°
2026-05-01 14:27 45.72920 -129.66929 34237 ft 503 kts 317°
2026-05-01 14:28 45.80925 -129.76658 34248 ft 503 kts 317°
2026-05-01 14:28 45.86232 -129.83128 34257 ft 503 kts 318°
2026-05-01 14:29 45.91561 -129.89645 34244 ft 503 kts 317°
2026-05-01 14:30 46.02112 -130.02796 34246 ft 501 kts 315°
2026-05-01 14:31 46.09627 -130.13258 34245 ft 500 kts 314°
2026-05-01 14:31 46.14613 -130.20268 34249 ft 500 kts 314°
2026-05-01 14:32 46.19581 -130.27226 34247 ft 500 kts 315°
2026-05-01 14:32 46.24597 -130.34234 34244 ft 503 kts 314°
2026-05-01 14:33 46.29629 -130.41307 34251 ft 506 kts 314°
2026-05-01 14:33 46.34688 -130.48427 34259 ft 508 kts 314°
2026-05-01 14:34 46.39752 -130.55569 34252 ft 509 kts 314°
2026-05-01 14:34 46.44817 -130.62734 34247 ft 508 kts 314°
2026-05-01 14:35 46.49866 -130.69897 34252 ft 505 kts 314°
2026-05-01 14:35 46.54856 -130.76995 34235 ft 499 kts 314°
2026-05-01 14:36 46.59772 -130.84007 34250 ft 498 kts 314°
2026-05-01 14:36 46.64710 -130.91072 34243 ft 498 kts 314°
2026-05-01 14:37 46.69645 -130.98150 34251 ft 497 kts 314°
2026-05-01 14:37 46.74571 -131.05234 34250 ft 497 kts 314°
2026-05-01 14:38 46.79495 -131.12336 34255 ft 497 kts 314°
2026-05-01 14:38 46.84410 -131.19443 34259 ft 496 kts 314°
2026-05-01 14:39 46.89304 -131.26538 34245 ft 495 kts 314°
2026-05-01 14:39 46.94158 -131.33595 34247 ft 494 kts 314°
2026-05-01 14:40 46.99028 -131.40695 34250 ft 493 kts 314°
2026-05-01 14:40 47.03883 -131.47791 34246 ft 492 kts 314°
2026-05-01 14:41 47.08722 -131.54885 34249 ft 491 kts 314°
2026-05-01 14:41 47.13541 -131.61969 34247 ft 490 kts 314°
2026-05-01 14:42 47.18347 -131.69052 34254 ft 488 kts 315°
2026-05-01 14:42 47.23123 -131.76109 34244 ft 486 kts 314°
2026-05-01 14:43 47.27879 -131.83157 34251 ft 484 kts 314°
2026-05-01 14:43 47.32621 -131.90203 34255 ft 482 kts 315°
2026-05-01 14:44 47.37335 -131.97225 34248 ft 481 kts 315°
2026-05-01 14:44 47.44379 -132.07754 34248 ft 479 kts 315°
2026-05-01 14:45 47.51358 -132.18229 34257 ft 478 kts 315°
2026-05-01 14:46 47.56018 -132.25248 34246 ft 477 kts 315°
2026-05-01 14:46 47.62980 -132.35768 34252 ft 476 kts 315°
2026-05-01 14:47 47.67617 -132.42797 34253 ft 476 kts 315°
2026-05-01 14:48 47.74569 -132.53374 34251 ft 477 kts 315°
2026-05-01 14:48 47.81476 -132.63924 34261 ft 477 kts 315°
2026-05-01 14:49 47.90736 -132.78135 34256 ft 477 kts 315°
2026-05-01 14:50 47.99973 -132.92374 34259 ft 478 kts 314°
2026-05-01 14:51 48.06895 -133.03125 34262 ft 478 kts 314°
2026-05-01 14:52 48.13774 -133.13837 34262 ft 478 kts 314°
2026-05-01 14:53 48.20670 -133.24617 34272 ft 477 kts 314°
2026-05-01 14:53 48.25255 -133.31810 34271 ft 477 kts 314°
2026-05-01 14:54 48.29832 -133.39010 34271 ft 476 kts 314°
2026-05-01 14:54 48.34403 -133.46221 34267 ft 476 kts 314°
2026-05-01 14:55 48.38965 -133.53438 34277 ft 475 kts 314°
2026-05-01 14:55 48.43511 -133.60651 34279 ft 475 kts 314°
2026-05-01 14:56 48.48028 -133.67835 34280 ft 475 kts 314°
2026-05-01 14:56 48.52565 -133.75073 34286 ft 473 kts 314°
2026-05-01 14:57 48.57075 -133.82289 34281 ft 472 kts 314°
2026-05-01 14:57 48.63815 -133.93109 34292 ft 471 kts 314°
2026-05-01 14:58 48.68299 -134.00331 34297 ft 470 kts 314°
2026-05-01 14:58 48.72766 -134.07548 34289 ft 469 kts 314°
2026-05-01 14:59 48.77224 -134.14769 34289 ft 468 kts 314°
2026-05-01 14:59 48.81646 -134.21951 34294 ft 468 kts 314°
2026-05-01 15:00 48.88291 -134.32784 34292 ft 466 kts 314°
2026-05-01 15:01 48.92692 -134.39983 34307 ft 464 kts 314°
2026-05-01 15:01 48.97079 -134.47178 34308 ft 463 kts 314°
2026-05-01 15:02 49.01457 -134.54380 34302 ft 462 kts 314°
2026-05-01 15:02 49.05781 -134.61513 34315 ft 460 kts 314°
2026-05-01 15:03 49.10118 -134.68685 34314 ft 459 kts 314°
2026-05-01 15:03 49.14438 -134.75851 34316 ft 458 kts 314°
2026-05-01 15:04 49.18741 -134.83006 34319 ft 457 kts 314°
2026-05-01 15:04 49.23030 -134.90161 34313 ft 455 kts 314°
2026-05-01 15:05 49.27301 -134.97302 34327 ft 454 kts 314°
2026-05-01 15:05 49.31566 -135.04454 34332 ft 454 kts 314°
2026-05-01 15:06 49.35816 -135.11602 34334 ft 453 kts 314°
2026-05-01 15:06 49.40061 -135.18760 34337 ft 453 kts 314°
2026-05-01 15:07 49.44275 -135.25886 34334 ft 454 kts 314°
2026-05-01 15:07 49.48515 -135.33074 34333 ft 454 kts 314°
2026-05-01 15:08 49.52758 -135.40290 34331 ft 453 kts 314°
2026-05-01 15:08 49.56982 -135.47492 34333 ft 452 kts 314°
2026-05-01 15:09 49.61194 -135.54695 34336 ft 452 kts 314°
2026-05-01 15:09 49.65393 -135.61894 34339 ft 451 kts 314°
2026-05-01 15:10 49.69555 -135.69051 34338 ft 449 kts 314°
2026-05-01 15:10 49.75798 -135.79823 34346 ft 447 kts 314°
2026-05-01 15:11 49.82008 -135.90576 34350 ft 446 kts 314°
2026-05-01 15:12 49.86139 -135.97767 34345 ft 446 kts 314°
2026-05-01 15:12 49.92304 -136.08523 34353 ft 446 kts 314°
2026-05-01 15:14 50.01893 -136.25341 34350 ft 445 kts 314°
2026-05-01 15:14 50.08029 -136.36162 34356 ft 443 kts 314°
2026-05-01 15:15 50.16138 -136.50534 34360 ft 440 kts 314°
2026-05-01 15:16 50.24153 -136.64816 34356 ft 437 kts 314°
2026-05-01 15:18 50.34114 -136.82678 34363 ft 435 kts 313°
2026-05-01 15:19 50.42034 -136.96969 34367 ft 433 kts 313°
2026-05-01 15:19 50.47945 -137.07685 34366 ft 432 kts 313°
2026-05-01 15:20 50.53808 -137.18360 34358 ft 431 kts 313°
2026-05-01 15:21 50.57719 -137.25505 34362 ft 430 kts 313°
2026-05-01 15:21 50.61614 -137.32643 34368 ft 429 kts 313°
2026-05-01 15:22 50.67437 -137.43348 34369 ft 428 kts 313°
2026-05-01 15:22 50.71304 -137.50481 34359 ft 427 kts 313°
2026-05-01 15:23 50.75160 -137.57615 34363 ft 426 kts 313°
2026-05-01 15:23 50.78977 -137.64697 34369 ft 426 kts 313°
2026-05-01 15:24 50.82809 -137.71826 34368 ft 425 kts 313°
2026-05-01 15:24 50.86632 -137.78957 34352 ft 425 kts 313°
2026-05-01 15:25 50.90454 -137.86106 34352 ft 424 kts 312°
2026-05-01 15:25 50.94254 -137.93235 34370 ft 423 kts 312°
2026-05-01 15:26 50.98047 -138.00369 34367 ft 422 kts 312°
2026-05-01 15:26 51.01825 -138.07496 34357 ft 422 kts 312°
2026-05-01 15:27 51.05600 -138.14636 34370 ft 422 kts 312°
2026-05-01 15:28 51.11251 -138.25362 34365 ft 422 kts 312°
2026-05-01 15:28 51.14991 -138.32486 34369 ft 422 kts 312°
2026-05-01 15:29 51.20635 -138.43273 34365 ft 422 kts 312°
2026-05-01 15:30 51.28122 -138.57655 34358 ft 420 kts 311°
2026-05-01 15:31 51.39243 -138.79168 34356 ft 418 kts 311°
2026-05-01 15:32 51.46631 -138.93558 34360 ft 417 kts 311°
2026-05-01 15:34 51.57648 -139.15169 34354 ft 417 kts 310°